| time (UTC) | temp F | wind direction | speed MPH | gust MPH | rain 1hr in | rain 24hr in | rain mn in | humidity % | barometer mb |
| 20260507070314 | 51 | 274 | 3.0 | 8.0 | 0.00 | 0.07 | 0.00 | 82 | 1010.6 |
| 20260507065824 | 51 | 271 | 0.0 | 5.0 | 0.00 | 0.07 | 0.00 | 82 | 1010.6 |
| 20260507065319 | 51 | 268 | 3.0 | 8.0 | 0.00 | 0.07 | 0.00 | 82 | 1010.6 |
| 20260507064833 | 51 | 279 | 4.0 | 9.0 | 0.00 | 0.07 | 0.00 | 82 | 1010.7 |
| 20260507064324 | 51 | 269 | 5.0 | 9.0 | 0.00 | 0.07 | 0.00 | 82 | 1010.8 |
| 20260507063816 | 51 | 277 | 3.0 | 8.0 | 0.00 | 0.07 | 0.00 | 82 | 1010.9 |
| 20260507063349 | 51 | 265 | 4.0 | 11.0 | 0.00 | 0.07 | 0.00 | 82 | 1011.0 |
| 20260507062819 | 51 | 286 | 6.0 | 11.0 | 0.00 | 0.07 | 0.00 | 82 | 1011.1 |
| 20260507062331 | 51 | 281 | 3.0 | 6.0 | 0.00 | 0.07 | 0.00 | 82 | 1011.1 |
| 20260507061844 | 51 | 269 | 3.0 | 5.0 | 0.00 | 0.07 | 0.00 | 82 | 1011.1 |
| 20260507061316 | 51 | 276 | 3.0 | 7.0 | 0.00 | 0.07 | 0.00 | 82 | 1011.3 |
| 20260507060832 | 51 | 275 | 4.0 | 7.0 | 0.00 | 0.07 | 0.00 | 82 | 1011.4 |
| 20260507060323 | 51 | 284 | 3.0 | 5.0 | 0.00 | 0.07 | 0.00 | 81 | 1011.4 |
| 20260507055813 | 51 | 267 | 2.0 | 4.0 | 0.00 | 0.07 | 0.00 | 81 | 1011.5 |
| 20260507055325 | 51 | 283 | 2.0 | 9.0 | 0.00 | 0.07 | 0.00 | 81 | 1011.4 |
| 20260507054817 | 51 | 292 | 4.0 | 9.0 | 0.00 | 0.07 | 0.00 | 81 | 1011.4 |
| 20260507054329 | 51 | 302 | 5.0 | 10.0 | 0.00 | 0.07 | 0.00 | 81 | 1011.4 |
| 20260507053822 | 51 | 273 | 6.0 | 10.0 | 0.00 | 0.07 | 0.00 | 81 | 1011.5 |
| 20260507053333 | 51 | 299 | 4.0 | 10.0 | 0.00 | 0.07 | 0.00 | 81 | 1011.4 |
| 20260507052828 | 51 | 273 | 6.0 | 10.0 | 0.00 | 0.07 | 0.00 | 81 | 1011.3 |
| 20260507052320 | 51 | 293 | 3.0 | 10.0 | 0.00 | 0.07 | 0.00 | 81 | 1011.3 |
| 20260507051833 | 51 | 277 | 4.0 | 11.0 | 0.00 | 0.07 | 0.00 | 81 | 1011.2 |
| 20260507051324 | 51 | 281 | 5.0 | 12.0 | 0.00 | 0.07 | 0.00 | 81 | 1011.0 |
| 20260507050837 | 51 | 277 | 4.0 | 12.0 | 0.00 | 0.07 | 0.00 | 82 | 1011.0 |
| 20260507050328 | 51 | 290 | 5.0 | 10.0 | 0.00 | 0.07 | 0.00 | 82 | 1010.8 |
| 20260507045817 | 51 | 288 | 6.0 | 11.0 | 0.00 | 0.07 | 0.00 | 82 | 1010.7 |
| 20260507045329 | 51 | 290 | 7.0 | 11.0 | 0.00 | 0.07 | 0.00 | 82 | 1010.8 |
| 20260507044821 | 51 | 309 | 7.0 | 12.0 | 0.00 | 0.07 | 0.00 | 81 | 1010.9 |
| 20260507044317 | 51 | 265 | 9.0 | 12.0 | 0.00 | 0.07 | 0.00 | 81 | 1011.0 |
| 20260507043850 | 52 | 281 | 6.0 | 10.0 | 0.00 | 0.07 | 0.00 | 81 | 1011.1 |
| 20260507043341 | 52 | 285 | 5.0 | 10.0 | 0.00 | 0.07 | 0.00 | 81 | 1011.2 |
| 20260507042832 | 52 | 294 | 5.0 | 11.0 | 0.00 | 0.07 | 0.00 | 81 | 1011.0 |
| 20260507042323 | 52 | 280 | 6.0 | 11.0 | 0.00 | 0.07 | 0.00 | 82 | 1011.1 |
| 20260507041815 | 52 | 279 | 3.0 | 10.0 | 0.00 | 0.07 | 0.00 | 82 | 1011.0 |
| 20260507041326 | 52 | 280 | 5.0 | 11.0 | 0.00 | 0.07 | 0.00 | 82 | 1011.0 |
| 20260507040838 | 52 | 263 | 4.0 | 8.0 | 0.00 | 0.07 | 0.00 | 81 | 1010.9 |
| 20260507040329 | 52 | 273 | 3.0 | 10.0 | 0.00 | 0.07 | 0.00 | 81 | 1010.6 |
| 20260507035818 | 52 | 310 | 5.0 | 10.0 | 0.00 | 0.07 | 0.00 | 82 | 1010.9 |
| 20260507035314 | 52 | 270 | 6.0 | 12.0 | 0.00 | 0.07 | 0.00 | 83 | 1011.1 |
| 20260507034848 | 52 | 284 | 7.0 | 12.0 | 0.00 | 0.07 | 0.00 | 84 | 1011.2 |
| 20260507034318 | 53 | 302 | 4.0 | 9.0 | 0.00 | 0.07 | 0.07 | 86 | 1011.4 |
| 20260507033830 | 53 | 294 | 3.0 | 7.0 | 0.00 | 0.07 | 0.07 | 86 | 1011.4 |
| 20260507033321 | 53 | 294 | 1.0 | 5.0 | 0.00 | 0.07 | 0.07 | 87 | 1010.9 |
| 20260507032853 | 53 | 285 | 2.0 | 6.0 | 0.00 | 0.07 | 0.07 | 87 | 1010.7 |
| 20260507032324 | 53 | 267 | 3.0 | 6.0 | 0.00 | 0.07 | 0.07 | 86 | 1010.5 |
| 20260507031815 | 53 | 277 | 3.0 | 10.0 | 0.00 | 0.07 | 0.07 | 86 | 1010.8 |
| 20260507031327 | 53 | 296 | 6.0 | 10.0 | 0.00 | 0.07 | 0.07 | 86 | 1010.8 |
| 20260507030822 | 53 | 284 | 6.0 | 11.0 | 0.00 | 0.07 | 0.07 | 86 | 1011.0 |
| 20260507030314 | 53 | 313 | 8.0 | 11.0 | 0.00 | 0.07 | 0.07 | 85 | 1011.2 |
| 20260507025824 | 54 | 298 | 5.0 | 8.0 | 0.00 | 0.07 | 0.07 | 86 | 1011.2 |
| 20260507025316 | 54 | 287 | 4.0 | 13.0 | 0.00 | 0.07 | 0.07 | 85 | 1010.9 |
| 20260507024828 | 54 | 296 | 5.0 | 13.0 | 0.00 | 0.07 | 0.07 | 85 | 1010.6 |
| 20260507024321 | 54 | 281 | 4.0 | 9.0 | 0.00 | 0.07 | 0.07 | 85 | 1010.9 |
| 20260507023832 | 54 | 282 | 5.0 | 13.0 | 0.00 | 0.07 | 0.07 | 85 | 1011.0 |
| 20260507023323 | 54 | 15 | 4.0 | 13.0 | 0.00 | 0.07 | 0.07 | 84 | 1010.4 |
| 20260507022819 | 54 | 303 | 5.0 | 10.0 | 0.00 | 0.07 | 0.07 | 84 | 1010.5 |
| 20260507022351 | 54 | 308 | 6.0 | 11.0 | 0.00 | 0.07 | 0.07 | 84 | 1010.6 |
| 20260507021822 | 54 | 291 | 7.0 | 13.0 | 0.00 | 0.07 | 0.07 | 84 | 1010.6 |
| 20260507021313 | 54 | 274 | 8.0 | 13.0 | 0.00 | 0.07 | 0.07 | 84 | 1010.4 |
| 20260507020825 | 54 | 284 | 8.0 | 13.0 | 0.00 | 0.07 | 0.07 | 83 | 1010.2 |
| 20260507020337 | 55 | 273 | 6.0 | 15.0 | 0.00 | 0.07 | 0.07 | 83 | 1010.3 |
| 20260507015846 | 55 | 261 | 8.0 | 15.0 | 0.00 | 0.07 | 0.07 | 83 | 1010.2 |
| 20260507015316 | 55 | 281 | 9.0 | 14.0 | 0.00 | 0.07 | 0.07 | 83 | 1010.1 |
| 20260507014828 | 55 | 302 | 6.0 | 12.0 | 0.00 | 0.07 | 0.07 | 83 | 1010.1 |
| 20260507014321 | 55 | 286 | 7.0 | 12.0 | 0.00 | 0.07 | 0.07 | 83 | 1010.0 |
| 20260507013817 | 55 | 290 | 7.0 | 12.0 | 0.00 | 0.07 | 0.07 | 83 | 1010.0 |
| 20260507013350 | 55 | 279 | 4.0 | 10.0 | 0.00 | 0.07 | 0.07 | 83 | 1010.0 |
| 20260507012821 | 55 | 267 | 4.0 | 12.0 | 0.00 | 0.07 | 0.07 | 83 | 1010.0 |
| 20260507012313 | 56 | 301 | 6.0 | 12.0 | 0.00 | 0.07 | 0.07 | 83 | 1010.4 |
| 20260507011825 | 56 | 280 | 5.0 | 7.0 | 0.00 | 0.07 | 0.07 | 83 | 1010.6 |
| 20260507011316 | 56 | 289 | 2.0 | 8.0 | 0.00 | 0.07 | 0.07 | 83 | 1010.5 |
| 20260507010848 | 56 | 290 | 2.0 | 11.0 | 0.00 | 0.07 | 0.07 | 83 | 1010.2 |
| 20260507010319 | 56 | 288 | 5.0 | 13.0 | 0.00 | 0.07 | 0.07 | 82 | 1010.1 |
| 20260507005829 | 56 | 292 | 6.0 | 12.0 | 0.00 | 0.07 | 0.07 | 83 | 1010.1 |
| 20260507005320 | 56 | 300 | 9.0 | 12.0 | 0.00 | 0.07 | 0.07 | 82 | 1009.9 |
| 20260507004816 | 56 | 285 | 6.0 | 11.0 | 0.00 | 0.07 | 0.07 | 83 | 1009.8 |
| 20260507004328 | 57 | 284 | 8.0 | 12.0 | 0.00 | 0.07 | 0.07 | 82 | 1009.9 |
| 20260507003819 | 57 | 293 | 6.0 | 13.0 | 0.00 | 0.07 | 0.07 | 82 | 1010.1 |
| 20260507003331 | 57 | 265 | 8.0 | 13.0 | 0.00 | 0.07 | 0.07 | 82 | 1010.4 |
| 20260507002823 | 57 | 288 | 4.0 | 10.0 | 0.00 | 0.07 | 0.07 | 82 | 1010.3 |
| 20260507002315 | 57 | 281 | 6.0 | 9.0 | 0.00 | 0.07 | 0.07 | 81 | 1010.2 |
| 20260507001827 | 58 | 276 | 4.0 | 11.0 | 0.00 | 0.07 | 0.07 | 81 | 1010.0 |
| 20260507001319 | 58 | 297 | 5.0 | 11.0 | 0.00 | 0.07 | 0.07 | 81 | 1010.1 |
| 20260507000814 | 58 | 87 | 1.0 | 10.0 | 0.00 | 0.07 | 0.07 | 82 | 1010.1 |
| 20260507000328 | 58 | 258 | 3.0 | 10.0 | 0.00 | 0.07 | 0.07 | 82 | 1010.2 |
| 20260506235837 | 58 | 234 | 2.0 | 10.0 | 0.00 | 0.07 | 0.07 | 83 | 1010.2 |
| 20260506235329 | 58 | 300 | 3.0 | 6.0 | 0.00 | 0.07 | 0.07 | 83 | 1010.2 |
| 20260506234820 | 58 | 262 | 4.0 | 11.0 | 0.00 | 0.07 | 0.07 | 82 | 1009.9 |
| 20260506234332 | 58 | 310 | 6.0 | 10.0 | 0.00 | 0.07 | 0.07 | 83 | 1009.9 |
| 20260506233824 | 58 | 269 | 5.0 | 11.0 | 0.00 | 0.07 | 0.07 | 83 | 1009.8 |
| 20260506233315 | 58 | 279 | 7.0 | 12.0 | 0.00 | 0.07 | 0.07 | 83 | 1009.8 |
| 20260506232848 | 58 | 271 | 7.0 | 16.0 | 0.00 | 0.07 | 0.07 | 83 | 1009.6 |
| 20260506232340 | 59 | 292 | 9.0 | 16.0 | 0.00 | 0.07 | 0.07 | 83 | 1009.3 |
| 20260506231815 | 59 | 278 | 9.0 | 14.0 | 0.00 | 0.07 | 0.07 | 84 | 1009.2 |
| 20260506231327 | 59 | 284 | 11.0 | 15.0 | 0.00 | 0.07 | 0.07 | 84 | 1009.1 |
| 20260506230840 | 59 | 282 | 9.0 | 13.0 | 0.00 | 0.07 | 0.07 | 85 | 1009.0 |
| 20260506230331 | 59 | 285 | 8.0 | 12.0 | 0.00 | 0.07 | 0.07 | 86 | 1008.9 |
| 20260506225821 | 60 | 269 | 7.0 | 11.0 | 0.00 | 0.07 | 0.07 | 85 | 1009.0 |
| 20260506225313 | 60 | 309 | 5.0 | 13.0 | 0.00 | 0.07 | 0.07 | 85 | 1009.3 |
| 20260506224825 | 60 | 300 | 7.0 | 14.0 | 0.00 | 0.07 | 0.07 | 85 | 1009.2 |
| 20260506224317 | 60 | 312 | 9.0 | 14.0 | 0.00 | 0.07 | 0.07 | 85 | 1009.0 |
| 20260506223849 | 60 | 275 | 5.0 | 10.0 | 0.00 | 0.07 | 0.07 | 86 | 1008.9 |
| 20260506223324 | 60 | 284 | 4.0 | 9.0 | 0.00 | 0.07 | 0.07 | 87 | 1009.0 |
| 20260506222816 | 61 | 295 | 3.0 | 9.0 | 0.00 | 0.07 | 0.07 | 87 | 1009.0 |
| 20260506222328 | 61 | 288 | 3.0 | 9.0 | 0.00 | 0.07 | 0.07 | 88 | 1008.9 |
| 20260506221820 | 61 | 298 | 4.0 | 11.0 | 0.00 | 0.07 | 0.07 | 87 | 1008.6 |
| 20260506221332 | 61 | 268 | 7.0 | 11.0 | 0.00 | 0.07 | 0.07 | 86 | 1008.8 |
| 20260506220824 | 61 | 291 | 6.0 | 11.0 | 0.00 | 0.07 | 0.07 | 85 | 1008.8 |
| 20260506220316 | 62 | 286 | 5.0 | 9.0 | 0.00 | 0.07 | 0.07 | 86 | 1008.9 |
| 20260506215827 | 62 | 299 | 5.0 | 10.0 | 0.00 | 0.07 | 0.07 | 86 | 1008.8 |
| 20260506215322 | 62 | 313 | 5.0 | 11.0 | 0.01 | 0.07 | 0.07 | 86 | 1008.6 |
| 20260506214835 | 62 | 293 | 7.0 | 11.0 | 0.01 | 0.07 | 0.07 | 85 | 1008.3 |
| 20260506214347 | 63 | 298 | 6.0 | 10.0 | 0.01 | 0.07 | 0.07 | 86 | 1008.1 |
| 20260506213818 | 63 | 278 | 6.0 | 11.0 | 0.01 | 0.07 | 0.07 | 85 | 1008.1 |
| 20260506213330 | 63 | 289 | 6.0 | 10.0 | 0.01 | 0.07 | 0.07 | 85 | 1008.2 |
| 20260506212822 | 63 | 284 | 7.0 | 10.0 | 0.01 | 0.07 | 0.07 | 86 | 1008.0 |
| 20260506212335 | 63 | 290 | 6.0 | 10.0 | 0.01 | 0.07 | 0.07 | 86 | 1008.0 |
| 20260506211826 | 63 | 293 | 4.0 | 9.0 | 0.01 | 0.07 | 0.07 | 86 | 1008.0 |
| 20260506211317 | 63 | 295 | 5.0 | 11.0 | 0.01 | 0.07 | 0.07 | 86 | 1008.0 |
| 20260506210851 | 64 | 279 | 6.0 | 17.0 | 0.01 | 0.07 | 0.07 | 85 | 1007.8 |
| 20260506210321 | 64 | 300 | 10.0 | 15.0 | 0.01 | 0.07 | 0.07 | 84 | 1007.9 |
| 20260506205815 | 65 | 269 | 9.0 | 14.0 | 0.01 | 0.07 | 0.07 | 81 | 1007.8 |
| 20260506205328 | 67 | 307 | 5.0 | 9.0 | 0.00 | 0.06 | 0.06 | 78 | 1007.8 |
| 20260506204821 | 67 | 292 | 3.0 | 5.0 | 0.00 | 0.06 | 0.06 | 79 | 1007.5 |
| 20260506204333 | 67 | 288 | 2.0 | 4.0 | 0.00 | 0.06 | 0.06 | 79 | 1007.4 |
| 20260506203845 | 68 | 290 | 1.0 | 3.0 | 0.00 | 0.06 | 0.06 | 78 | 1007.4 |
| 20260506203316 | 68 | 310 | 1.0 | 3.0 | 0.00 | 0.06 | 0.06 | 77 | 1007.5 |
| 20260506202827 | 68 | 296 | 0.0 | 5.0 | 0.00 | 0.06 | 0.06 | 78 | 1007.4 |
| 20260506202339 | 68 | 285 | 0.0 | 5.0 | 0.00 | 0.06 | 0.06 | 78 | 1007.3 |
| 20260506201830 | 68 | 307 | 2.0 | 4.0 | 0.00 | 0.06 | 0.06 | 77 | 1007.3 |
| 20260506201342 | 68 | 306 | 2.0 | 4.0 | 0.00 | 0.06 | 0.06 | 79 | 1007.3 |
| 20260506200817 | 67 | 144 | 1.0 | 3.0 | 0.00 | 0.06 | 0.06 | 82 | 1007.3 |
| 20260506200329 | 67 | 134 | 0.0 | 2.0 | 0.00 | 0.06 | 0.06 | 81 | 1007.4 |
| 20260506195820 | 66 | 153 | 0.0 | 2.0 | 0.00 | 0.06 | 0.06 | 82 | 1007.3 |
| 20260506195313 | 66 | 153 | 0.0 | 2.0 | 0.00 | 0.06 | 0.06 | 84 | 1007.3 |
| 20260506194825 | 66 | 153 | 0.0 | 2.0 | 0.00 | 0.06 | 0.06 | 84 | 1007.1 |
| 20260506194316 | 65 | 153 | 1.0 | 3.0 | 0.00 | 0.06 | 0.06 | 84 | 1007.1 |
| 20260506193829 | 65 | 153 | 1.0 | 3.0 | 0.00 | 0.06 | 0.06 | 84 | 1007.2 |
| 20260506193321 | 65 | 150 | 2.0 | 3.0 | 0.00 | 0.06 | 0.06 | 84 | 1007.3 |
| 20260506192817 | 65 | 148 | 0.0 | 3.0 | 0.00 | 0.06 | 0.06 | 84 | 1007.1 |
| 20260506192330 | 65 | 160 | 1.0 | 3.0 | 0.00 | 0.06 | 0.06 | 83 | 1007.4 |
| 20260506191822 | 65 | 160 | 0.0 | 3.0 | 0.00 | 0.06 | 0.06 | 84 | 1007.3 |
| 20260506191313 | 65 | 158 | 2.0 | 4.0 | 0.00 | 0.06 | 0.06 | 83 | 1007.4 |
| 20260506190826 | 65 | 302 | 0.0 | 0.0 | 0.00 | 0.06 | 0.06 | 83 | 1007.5 |
| 20260506190317 | 65 | 302 | 0.0 | 2.0 | 0.00 | 0.06 | 0.06 | 83 | 1007.5 |
| 20260506185848 | 65 | 302 | 0.0 | 2.0 | 0.00 | 0.06 | 0.06 | 83 | 1007.5 |
| 20260506185319 | 65 | 302 | 1.0 | 4.0 | 0.00 | 0.06 | 0.06 | 84 | 1007.6 |
| 20260506184815 | 65 | 302 | 2.0 | 5.0 | 0.00 | 0.06 | 0.06 | 84 | 1007.5 |
| 20260506184347 | 65 | 299 | 3.0 | 5.0 | 0.00 | 0.06 | 0.06 | 84 | 1007.4 |
| 20260506183838 | 64 | 310 | 3.0 | 5.0 | 0.00 | 0.06 | 0.06 | 84 | 1007.5 |
| 20260506183329 | 64 | 315 | 4.0 | 6.0 | 0.00 | 0.06 | 0.06 | 85 | 1007.4 |
| 20260506182822 | 64 | 314 | 4.0 | 6.0 | 0.00 | 0.06 | 0.06 | 85 | 1007.4 |
| 20260506182314 | 64 | 306 | 4.0 | 8.0 | 0.00 | 0.06 | 0.06 | 84 | 1007.5 |
| 20260506181826 | 64 | 9 | 3.0 | 9.0 | 0.00 | 0.06 | 0.06 | 83 | 1007.4 |
| 20260506181319 | 64 | 9 | 5.0 | 9.0 | 0.00 | 0.06 | 0.06 | 83 | 1007.6 |
| 20260506180852 | 65 | 294 | 6.0 | 8.0 | 0.00 | 0.06 | 0.06 | 82 | 1007.5 |
| 20260506180322 | 65 | 312 | 2.0 | 5.0 | 0.00 | 0.06 | 0.06 | 82 | 1007.5 |
| 20260506175835 | 65 | 172 | 2.0 | 5.0 | 0.00 | 0.06 | 0.06 | 80 | 1007.5 |
| 20260506175346 | 65 | 175 | 1.0 | 6.0 | 0.00 | 0.06 | 0.06 | 81 | 1007.5 |
| 20260506174821 | 65 | 177 | 3.0 | 10.0 | 0.00 | 0.06 | 0.06 | 80 | 1007.5 |
| 20260506174313 | 65 | 168 | 4.0 | 10.0 | 0.00 | 0.06 | 0.06 | 80 | 1007.4 |
| 20260506173826 | 65 | 162 | 3.0 | 7.0 | 0.00 | 0.06 | 0.06 | 81 | 1007.4 |
| 20260506173318 | 65 | 171 | 5.0 | 7.0 | 0.00 | 0.06 | 0.06 | 80 | 1007.4 |
| 20260506172830 | 65 | 182 | 1.0 | 3.0 | 0.00 | 0.06 | 0.06 | 81 | 1007.4 |
| 20260506172321 | 65 | 169 | 1.0 | 3.0 | 0.00 | 0.06 | 0.06 | 82 | 1007.4 |
| 20260506171813 | 65 | 174 | 0.0 | 3.0 | 0.00 | 0.06 | 0.06 | 82 | 1007.4 |
| 20260506171325 | 65 | 174 | 1.0 | 4.0 | 0.00 | 0.06 | 0.06 | 81 | 1007.3 |
| 20260506170822 | 65 | 177 | 2.0 | 6.0 | 0.00 | 0.06 | 0.06 | 81 | 1007.3 |
| 20260506170314 | 65 | 174 | 3.0 | 7.0 | 0.00 | 0.06 | 0.06 | 80 | 1007.3 |
| 20260506165824 | 65 | 184 | 5.0 | 7.0 | 0.00 | 0.06 | 0.06 | 79 | 1007.3 |
| 20260506165316 | 65 | 184 | 4.0 | 7.0 | 0.00 | 0.06 | 0.06 | 80 | 1007.3 |
| 20260506164850 | 65 | 173 | 4.0 | 9.0 | 0.00 | 0.06 | 0.06 | 80 | 1007.3 |
| 20260506164321 | 65 | 159 | 5.0 | 9.0 | 0.00 | 0.06 | 0.06 | 80 | 1007.2 |
| 20260506163814 | 65 | 176 | 6.0 | 11.0 | 0.00 | 0.06 | 0.06 | 79 | 1007.1 |
| 20260506163325 | 65 | 182 | 4.0 | 11.0 | 0.00 | 0.06 | 0.06 | 79 | 1007.3 |
| 20260506162820 | 65 | 180 | 5.0 | 9.0 | 0.00 | 0.06 | 0.06 | 78 | 1007.3 |
| 20260506162332 | 65 | 185 | 5.0 | 9.0 | 0.00 | 0.06 | 0.06 | 79 | 1007.1 |
| 20260506161823 | 65 | 184 | 6.0 | 9.0 | 0.00 | 0.06 | 0.06 | 78 | 1007.0 |
| 20260506161315 | 65 | 171 | 4.0 | 11.0 | 0.00 | 0.06 | 0.06 | 79 | 1007.1 |
| 20260506160847 | 65 | 180 | 4.0 | 11.0 | 0.00 | 0.06 | 0.06 | 79 | 1007.1 |
| 20260506160318 | 65 | 173 | 7.0 | 11.0 | 0.00 | 0.06 | 0.06 | 78 | 1007.1 |
| 20260506155829 | 65 | 184 | 7.0 | 14.0 | 0.00 | 0.06 | 0.06 | 78 | 1007.1 |
| 20260506155321 | 65 | 177 | 7.0 | 15.0 | 0.00 | 0.06 | 0.06 | 78 | 1007.0 |
| 20260506154813 | 65 | 176 | 5.0 | 9.0 | 0.00 | 0.06 | 0.06 | 79 | 1007.0 |
| 20260506154330 | 65 | 175 | 5.0 | 11.0 | 0.00 | 0.06 | 0.06 | 79 | 1007.0 |
| 20260506153822 | 65 | 178 | 8.0 | 12.0 | 0.00 | 0.06 | 0.06 | 78 | 1007.0 |
| 20260506153315 | 65 | 188 | 6.0 | 13.0 | 0.00 | 0.06 | 0.06 | 80 | 1007.0 |
| 20260506152827 | 65 | 162 | 7.0 | 13.0 | 0.00 | 0.06 | 0.06 | 80 | 1007.1 |
| 20260506152319 | 65 | 169 | 7.0 | 10.0 | 0.00 | 0.06 | 0.06 | 81 | 1007.1 |
| 20260506151831 | 65 | 163 | 6.0 | 10.0 | 0.00 | 0.06 | 0.06 | 80 | 1007.3 |
| 20260506151323 | 65 | 179 | 7.0 | 13.0 | 0.00 | 0.06 | 0.06 | 79 | 1007.0 |
| 20260506150814 | 65 | 160 | 5.0 | 13.0 | 0.00 | 0.06 | 0.06 | 81 | 1007.0 |
| 20260506150330 | 65 | 167 | 6.0 | 10.0 | 0.00 | 0.06 | 0.06 | 82 | 1007.1 |
| 20260506145820 | 64 | 167 | 7.0 | 14.0 | 0.00 | 0.06 | 0.06 | 84 | 1006.8 |
| 20260506145352 | 63 | 173 | 7.0 | 14.0 | 0.00 | 0.06 | 0.06 | 83 | 1007.0 |
| 20260506144823 | 63 | 180 | 7.0 | 16.0 | 0.00 | 0.06 | 0.06 | 85 | 1006.9 |
| 20260506144315 | 63 | 164 | 6.0 | 11.0 | 0.00 | 0.06 | 0.06 | 86 | 1007.0 |
| 20260506143827 | 62 | 172 | 8.0 | 11.0 | 0.00 | 0.06 | 0.06 | 85 | 1007.1 |
| 20260506143318 | 62 | 182 | 6.0 | 10.0 | 0.00 | 0.06 | 0.06 | 86 | 1007.1 |
| 20260506142830 | 61 | 163 | 5.0 | 11.0 | 0.00 | 0.06 | 0.06 | 88 | 1007.1 |
| 20260506142322 | 61 | 163 | 5.0 | 8.0 | 0.00 | 0.06 | 0.06 | 88 | 1007.2 |
| 20260506141818 | 60 | 158 | 3.0 | 9.0 | 0.00 | 0.06 | 0.06 | 89 | 1007.3 |
| 20260506141330 | 60 | 185 | 4.0 | 9.0 | 0.00 | 0.06 | 0.06 | 88 | 1007.1 |
| 20260506140822 | 60 | 149 | 6.0 | 9.0 | 0.00 | 0.06 | 0.06 | 88 | 1007.1 |
| 20260506140314 | 59 | 173 | 4.0 | 10.0 | 0.00 | 0.06 | 0.06 | 88 | 1007.1 |
| 20260506135824 | 59 | 169 | 5.0 | 10.0 | 0.01 | 0.06 | 0.06 | 88 | 1007.2 |
| 20260506135316 | 59 | 159 | 6.0 | 9.0 | 0.01 | 0.06 | 0.06 | 89 | 1007.3 |
| 20260506134829 | 59 | 175 | 5.0 | 9.0 | 0.01 | 0.06 | 0.06 | 89 | 1007.4 |
| 20260506134321 | 59 | 163 | 5.0 | 10.0 | 0.01 | 0.06 | 0.06 | 89 | 1007.6 |
| 20260506133838 | 59 | 166 | 3.0 | 7.0 | 0.01 | 0.06 | 0.06 | 88 | 1007.6 |
| 20260506133349 | 59 | 163 | 5.0 | 8.0 | 0.02 | 0.06 | 0.06 | 88 | 1007.7 |
| 20260506132820 | 59 | 163 | 4.0 | 8.0 | 0.02 | 0.06 | 0.06 | 88 | 1007.7 |
| 20260506132332 | 59 | 156 | 5.0 | 7.0 | 0.03 | 0.06 | 0.06 | 88 | 1007.8 |
| 20260506131825 | 59 | 184 | 5.0 | 9.0 | 0.03 | 0.06 | 0.06 | 88 | 1007.7 |
| 20260506131317 | 59 | 176 | 5.0 | 9.0 | 0.03 | 0.06 | 0.06 | 88 | 1007.5 |
| 20260506130829 | 59 | 143 | 5.0 | 9.0 | 0.03 | 0.06 | 0.06 | 88 | 1007.4 |
| 20260506130321 | 58 | 175 | 6.0 | 9.0 | 0.03 | 0.06 | 0.06 | 89 | 1007.3 |
| 20260506125831 | 58 | 165 | 5.0 | 9.0 | 0.03 | 0.05 | 0.05 | 88 | 1007.3 |
| 20260506125343 | 58 | 169 | 6.0 | 10.0 | 0.03 | 0.05 | 0.05 | 88 | 1007.3 |
| 20260506124838 | 58 | 164 | 6.0 | 12.0 | 0.03 | 0.05 | 0.05 | 88 | 1007.3 |
| 20260506124329 | 58 | 169 | 5.0 | 12.0 | 0.04 | 0.05 | 0.05 | 87 | 1007.4 |
| 20260506123822 | 59 | 183 | 4.0 | 10.0 | 0.04 | 0.05 | 0.05 | 87 | 1007.5 |
| 20260506123313 | 59 | 185 | 7.0 | 10.0 | 0.03 | 0.04 | 0.04 | 86 | 1007.5 |
| 20260506122825 | 59 | 153 | 5.0 | 9.0 | 0.03 | 0.04 | 0.04 | 86 | 1007.5 |
| 20260506122318 | 59 | 173 | 4.0 | 8.0 | 0.02 | 0.03 | 0.03 | 85 | 1007.6 |
| 20260506121830 | 59 | 173 | 4.0 | 8.0 | 0.02 | 0.03 | 0.03 | 85 | 1007.6 |
| 20260506121321 | 59 | 167 | 6.0 | 8.0 | 0.03 | 0.03 | 0.03 | 85 | 1007.7 |
| 20260506120818 | 59 | 167 | 4.0 | 7.0 | 0.03 | 0.03 | 0.03 | 84 | 1007.6 |
| 20260506120350 | 59 | 172 | 4.0 | 8.0 | 0.03 | 0.03 | 0.03 | 83 | 1007.7 |
| 20260506115818 | 59 | 171 | 4.0 | 8.0 | 0.02 | 0.02 | 0.02 | 82 | 1007.9 |
| 20260506115330 | 60 | 169 | 6.0 | 12.0 | 0.02 | 0.02 | 0.02 | 81 | 1007.7 |
| 20260506114842 | 60 | 159 | 5.0 | 12.0 | 0.02 | 0.02 | 0.02 | 80 | 1007.7 |
| 20260506114333 | 60 | 171 | 5.0 | 9.0 | 0.01 | 0.01 | 0.01 | 78 | 1007.8 |
| 20260506113825 | 60 | 175 | 6.0 | 9.0 | 0.01 | 0.01 | 0.01 | 78 | 1007.6 |
| 20260506113317 | 61 | 180 | 4.0 | 8.0 | 0.01 | 0.01 | 0.01 | 77 | 1007.7 |
| 20260506112829 | 61 | 173 | 3.0 | 9.0 | 0.01 | 0.01 | 0.01 | 74 | 1007.8 |
| 20260506112320 | 61 | 193 | 5.0 | 9.0 | 0.01 | 0.01 | 0.01 | 72 | 1007.8 |
| 20260506111816 | 62 | 190 | 3.0 | 8.0 | 0.01 | 0.01 | 0.01 | 71 | 1007.9 |
| 20260506111328 | 62 | 172 | 5.0 | 9.0 | 0.00 | 0.00 | 0.00 | 69 | 1007.8 |
| 20260506110821 | 63 | 171 | 3.0 | 8.0 | 0.00 | 0.00 | 0.00 | 68 | 1007.9 |
| 20260506110333 | 63 | 176 | 4.0 | 11.0 | 0.00 | 0.00 | 0.00 | 66 | 1007.8 |
| 20260506105823 | 63 | 175 | 4.0 | 7.0 | 0.00 | 0.00 | 0.00 | 64 | 1007.7 |
| 20260506105314 | 64 | 167 | 4.0 | 8.0 | 0.00 | 0.00 | 0.00 | 64 | 1007.7 |
| 20260506104825 | 64 | 182 | 5.0 | 10.0 | 0.00 | 0.00 | 0.00 | 60 | 1007.6 |
| 20260506104317 | 65 | 180 | 5.0 | 10.0 | 0.00 | 0.00 | 0.00 | 60 | 1007.4 |
| 20260506103813 | 65 | 183 | 7.0 | 10.0 | 0.00 | 0.00 | 0.00 | 60 | 1007.6 |
| 20260506103326 | 65 | 181 | 5.0 | 8.0 | 0.00 | 0.00 | 0.00 | 59 | 1007.5 |
| 20260506102818 | 65 | 184 | 4.0 | 12.0 | 0.00 | 0.00 | 0.00 | 59 | 1007.6 |
| 20260506102330 | 65 | 167 | 6.0 | 12.0 | 0.00 | 0.00 | 0.00 | 59 | 1007.5 |
| 20260506101823 | 65 | 178 | 3.0 | 12.0 | 0.00 | 0.00 | 0.00 | 60 | 1007.4 |
| 20260506101315 | 65 | 165 | 5.0 | 8.0 | 0.00 | 0.00 | 0.00 | 59 | 1007.3 |
| 20260506100826 | 65 | 180 | 6.0 | 8.0 | 0.00 | 0.00 | 0.00 | 58 | 1007.3 |
| 20260506100318 | 65 | 173 | 5.0 | 9.0 | 0.00 | 0.00 | 0.00 | 57 | 1007.3 |
| 20260506095832 | 65 | 211 | 5.0 | 10.0 | 0.00 | 0.00 | 0.00 | 56 | 1007.0 |
| 20260506095324 | 65 | 166 | 5.0 | 9.0 | 0.00 | 0.00 | 0.00 | 56 | 1007.0 |
| 20260506094816 | 65 | 175 | 5.0 | 9.0 | 0.00 | 0.00 | 0.00 | 56 | 1007.1 |
| 20260506094328 | 65 | 166 | 5.0 | 12.0 | 0.00 | 0.00 | 0.00 | 56 | 1007.0 |
| 20260506093819 | 66 | 164 | 5.0 | 10.0 | 0.00 | 0.00 | 0.00 | 56 | 1007.1 |
| 20260506093331 | 66 | 165 | 6.0 | 10.0 | 0.00 | 0.00 | 0.00 | 54 | 1007.1 |
| 20260506092824 | 66 | 178 | 6.0 | 11.0 | 0.00 | 0.00 | 0.00 | 53 | 1007.1 |
| 20260506092316 | 66 | 182 | 5.0 | 11.0 | 0.00 | 0.00 | 0.00 | 53 | 1007.1 |
| 20260506091848 | 66 | 174 | 7.0 | 11.0 | 0.00 | 0.00 | 0.00 | 52 | 1007.1 |
| 20260506091323 | 66 | 190 | 5.0 | 11.0 | 0.00 | 0.00 | 0.00 | 53 | 1007.3 |
| 20260506090815 | 66 | 164 | 7.0 | 10.0 | 0.00 | 0.00 | 0.00 | 53 | 1007.4 |
| 20260506090328 | 66 | 180 | 4.0 | 9.0 | 0.00 | 0.00 | 0.00 | 53 | 1007.3 |
| 20260506085817 | 66 | 178 | 4.0 | 11.0 | 0.00 | 0.00 | 0.00 | 53 | 1007.3 |
| 20260506085329 | 66 | 186 | 6.0 | 12.0 | 0.00 | 0.00 | 0.00 | 52 | 1007.2 |
| 20260506084821 | 67 | 174 | 7.0 | 12.0 | 0.00 | 0.00 | 0.00 | 52 | 1007.3 |
| 20260506084333 | 67 | 163 | 6.0 | 11.0 | 0.00 | 0.00 | 0.00 | 52 | 1007.4 |
| 20260506083825 | 67 | 181 | 8.0 | 15.0 | 0.00 | 0.00 | 0.00 | 52 | 1007.4 |
| 20260506083320 | 67 | 177 | 6.0 | 11.0 | 0.00 | 0.00 | 0.00 | 52 | 1007.4 |
| 20260506082832 | 67 | 186 | 5.0 | 12.0 | 0.00 | 0.00 | 0.00 | 51 | 1007.5 |
| 20260506082323 | 67 | 171 | 8.0 | 12.0 | 0.00 | 0.00 | 0.00 | 51 | 1007.5 |
| 20260506081816 | 67 | 168 | 7.0 | 10.0 | 0.00 | 0.00 | 0.00 | 51 | 1007.6 |
| 20260506081328 | 67 | 164 | 7.0 | 13.0 | 0.00 | 0.00 | 0.00 | 50 | 1007.5 |
| 20260506080819 | 67 | 151 | 9.0 | 20.0 | 0.00 | 0.00 | 0.00 | 50 | 1007.4 |
| 20260506080331 | 67 | 153 | 7.0 | 20.0 | 0.00 | 0.00 | 0.00 | 50 | 1007.4 |
| 20260506073324 | 68 | 171 | 9.0 | 17.0 | 0.00 | 0.00 | 0.00 | 49 | 1007.4 |
| 20260506072835 | 68 | 163 | 7.0 | 17.0 | 0.00 | 0.00 | 0.00 | 49 | 1007.5 |
| 20260506072326 | 68 | 188 | 12.0 | 17.0 | 0.00 | 0.00 | 0.00 | 48 | 1007.5 |
| 20260506071818 | 68 | 164 | 9.0 | 19.0 | 0.00 | 0.00 | 0.00 | 49 | 1007.4 |
| 20260506071314 | 67 | 163 | 9.0 | 13.0 | 0.00 | 0.00 | 0.00 | 49 | 1007.5 |
| 20260506070846 | 67 | 158 | 6.0 | 15.0 | 0.00 | 0.00 | 0.00 | 48 | 1007.5 |